User: anonymous   Login
Location: Fort Wayne
(41.1310°N, 85.1290°W)
Time: 02:13:36
(UTC-04:00)
Language:

Cosmos 2082 - Orbit

View from above orbital plane
View from above orbital plane
View from above satellite
View from above satellite

Ground track
Ground track

The orbit data is extracted from the following two-line orbital elements,

1 20624U 90046A   14302.81812324 -.00000227  00000-0 -94323-4 0   575
2 20624 071.0424 066.6151 0013412 044.6285 110.0354 14.14105334261288
Epoch (UTC): 29 October 2014 19:38:05
Eccentricity: 0.0013412
inclination: 71.0424°
perigee height: 835 km
apogee height: 855 km
right ascension of ascending node: 66.6151°
argument of perigee: 44.6285°
revolutions per day: 14.14105334
mean anomaly at epoch: 110.0354°
orbit number at epoch: 26128

The dashed part of the orbit path shows where the satellite is in the earth's shadow,  

DLR